"Pseudo-MPEC" for ZTF02V1

Created 2019 Feb 15 22:18:12 UT using Find_Orb

Click here for an explanation of pseudo-MPECs

 
 Astrometry: 
     ZTF02V1  C2019 02 08.28216 09 22 27.96 +05 24 52.7    ~292I 21.1 rUNEOCPI41
     ZTF02V1  C2019 02 08.29713 09 22 28.37 +05 24 53.0    ~292I 21.1 rUNEOCPI41
     ZTF02V1  C2019 02 08.30318 09 22 28.56 +05 24 52.5    ~292I 20.7 rUNEOCPI41
     ZTF02V1  C2019 02 08.36985 09 22 30.34 +05 24 53.0    ~292I 20.8 rUNEOCPI41

Station data:
(I41) Palomar Mountain--ZTF  (N33.357340 W116.859780)  US/California. 1.2-m
   f/2.44 Oschin Schmidt + CCD.

Orbital elements:  ZTF02V1
   Perihelion 2019 Mar 4.911267 +/- 41.7 TT = 21:52:13 (JD 2458547.411267)
Epoch 2019 Feb  8.0 TT = JDT 2458522.5   Earth MOID: 0.2705   Ma: 0.0431
M 353.11859714 +/- 15               (J2000 ecliptic)          AutoNEOCP
n   0.27623656 +/- 0.248            Peri.  329.46656 +/- 90
a   2.33497340 +/- 1.39             Node   190.44494 +/- 52
e   0.4603005 +/- 0.244             Incl.    2.86063 +/- 1.5
P   3.57                   H 22.7   G  0.15   U 11.8  SR
q 1.26018392 +/- 0.286    Q 3.40976289 +/- 60.9
From 4 observations 2019 Feb. 8 (2.1 hr); mean residual 0".18
Residuals in arcseconds: 
190208 I41  .13-  .03+    190208 I41  .28+  .29-    
190208 I41  .11-  .24+    190208 I41  .05-  .03+    

Ephemerides (geocentric):
Date (UTC) HH   RA              Dec         delta   r     elong  mag " sig PA
---- -- -- --  -------------   -----------  ------ ------ -----  --- ---- ---
2019 02 15 22  09 27 39.939   +05 34 08.63  .28801 1.2725 170.1 21.1  46d   2
2019 02 15 23  09 27 41.841   +05 34 14.25  .28795 1.2724 170.1 21.1  46d   2
2019 02 16 00  09 27 43.745   +05 34 19.89  .28789 1.2723 170.1 21.1  46d   2
2019 02 16 01  09 27 45.653   +05 34 25.57  .28783 1.2723 170.1 21.1  46d   2
2019 02 16 02  09 27 47.562   +05 34 31.26  .28777 1.2722 170.1 21.1  46d   2
2019 02 16 03  09 27 49.474   +05 34 36.99  .28771 1.2722 170.1 21.1  46d   2
2019 02 16 04  09 27 51.389   +05 34 42.74  .28765 1.2721 170.1 21.1  46d   2
2019 02 16 05  09 27 53.306   +05 34 48.51  .28759 1.2721 170.1 21.1  46d   2
2019 02 16 06  09 27 55.226   +05 34 54.31  .28753 1.2720 170.0 21.1  46d   2
2019 02 16 07  09 27 57.148   +05 35 00.14  .28747 1.2719 170.0 21.1  46d   2
2019 02 16 08  09 27 59.073   +05 35 05.99  .28741 1.2719 170.0 21.1  46d   2
2019 02 16 09  09 28 01.001   +05 35 11.87  .28735 1.2718 170.0 21.1  46d   2
2019 02 16 10  09 28 02.931   +05 35 17.77  .28730 1.2718 170.0 21.1  46d   2
2019 02 16 11  09 28 04.863   +05 35 23.70  .28724 1.2717 170.0 21.1  46d   2
2019 02 16 12  09 28 06.799   +05 35 29.65  .28718 1.2716 170.0 21.1  46d   2
2019 02 16 13  09 28 08.736   +05 35 35.63  .28712 1.2716 170.0 21.1  46d   2
2019 02 16 14  09 28 10.677   +05 35 41.64  .28706 1.2715 170.0 21.1  46d   2
2019 02 16 15  09 28 12.620   +05 35 47.67  .28701 1.2715 169.9 21.1  46d   2
2019 02 16 16  09 28 14.565   +05 35 53.72  .28695 1.2714 169.9 21.1  46d   2
2019 02 16 17  09 28 16.513   +05 35 59.80  .28689 1.2714 169.9 21.1  46d   2
2019 02 16 18  09 28 18.464   +05 36 05.91  .28684 1.2713 169.9 21.1  46d   2
2019 02 16 19  09 28 20.417   +05 36 12.04  .28678 1.2712 169.9 21.1  46d   2
2019 02 16 20  09 28 22.373   +05 36 18.20  .28672 1.2712 169.9 21.1  46d   2
2019 02 16 21  09 28 24.332   +05 36 24.38  .28667 1.2711 169.9 21.1  46d   2
2019 02 16 22  09 28 26.293   +05 36 30.58  .28661 1.2711 169.8 21.1  46d   2
2019 02 16 23  09 28 28.257   +05 36 36.81  .28655 1.2710 169.8 21.1  46d   2
2019 02 17 00  09 28 30.223   +05 36 43.07  .28650 1.2710 169.8 21.1  46d   2
2019 02 17 01  09 28 32.192   +05 36 49.35  .28644 1.2709 169.8 21.1  46d   2
2019 02 17 02  09 28 34.164   +05 36 55.65  .28639 1.2709 169.8 21.1  46d   2
2019 02 17 03  09 28 36.139   +05 37 01.98  .28633 1.2708 169.8 21.1  46d   2
2019 02 17 04  09 28 38.116   +05 37 08.34  .28628 1.2707 169.8 21.1  46d   2
2019 02 17 05  09 28 40.095   +05 37 14.72  .28622 1.2707 169.7 21.1  46d   2
2019 02 17 06  09 28 42.078   +05 37 21.12  .28617 1.2706 169.7 21.1  46d   2
2019 02 17 07  09 28 44.063   +05 37 27.55  .28612 1.2706 169.7 21.1  46d   2
2019 02 17 08  09 28 46.050   +05 37 34.00  .28606 1.2705 169.7 21.1  46d   2
2019 02 17 09  09 28 48.041   +05 37 40.48  .28601 1.2705 169.7 21.1  47d   2
2019 02 17 10  09 28 50.034   +05 37 46.98  .28595 1.2704 169.7 21.1  47d   2
2019 02 17 11  09 28 52.029   +05 37 53.50  .28590 1.2704 169.7 21.1  47d   2
2019 02 17 12  09 28 54.028   +05 38 00.05  .28585 1.2703 169.6 21.1  47d   2
2019 02 17 13  09 28 56.029   +05 38 06.62  .28580 1.2702 169.6 21.1  47d   2
2019 02 17 14  09 28 58.032   +05 38 13.22  .28574 1.2702 169.6 21.1  47d   2
2019 02 17 15  09 29 00.039   +05 38 19.84  .28569 1.2701 169.6 21.1  47d   2
2019 02 17 16  09 29 02.048   +05 38 26.49  .28564 1.2701 169.6 21.1  47d   2
2019 02 17 17  09 29 04.060   +05 38 33.16  .28559 1.2700 169.6 21.1  47d   2
2019 02 17 18  09 29 06.074   +05 38 39.85  .28553 1.2700 169.6 21.1  48d   2
2019 02 17 19  09 29 08.092   +05 38 46.57  .28548 1.2699 169.5 21.1  48d   2
2019 02 17 20  09 29 10.112   +05 38 53.31  .28543 1.2699 169.5 21.1  48d   2
2019 02 17 21  09 29 12.134   +05 39 00.07  .28538 1.2698 169.5 21.1  48d   2